Flag for India Weather past 2 weeks in Thiruvananthapuram, Kerala, India

Now
84 °F

Broken clouds.


Feels Like: 94 °F
Forecast: 79 / 85 °F
Wind: 8 mph from Northwest

Location: Thiruvananthapuram

Current Time: Sep 18, 2014 at 10:18:54 AM

Latest Report: Sep 18, 2014 at 9:40 AM


Visibility: 2 mi

Pressure: 29.83 "Hg

Humidity: 79%

Dew point: 77 °F

Location of ThiruvananthapuramLocation

Historic Weather in Thiruvananthapuram — Graph

°F

Thiruvananthapuram temperature yesterday

Maximum temperature yesterday: 88 °F (at 12:10 PM)
Minimum temperature yesterday: 79 °F (at 1:10 AM)
Average temperature yesterday: 83 °F

Past Weeks' High & Low Weather Summary

 TemperatureHumidityPressure
High90 °F (Sep 5, 3:40 PM)94% (Sep 3, 7:40 PM)29.89 "Hg (Sep 3, 7:40 PM)
Low75 °F (Sep 3, 7:40 PM)62% (Sep 13, 12:10 PM)29.68 "Hg (Sep 17, 2:10 PM)
Average82 °F80%29.82 "Hg
* Reported Sep 3 11:10 AM — Sep 18 9:10 AM, Thiruvananthapuram, Weather by CustomWeather, © 2014

Note: Actual official high and low records may vary slightly from our data, if they occured in-between our weather recording intervals... More about our weather records

Advertising

Thiruvananthapuram weather history for previous 24 hours

 ConditionsComfort  
Time TempWeatherWind HumidityBarometerVisibility
9:10 AM
Sep 18
82 °FBroken clouds.8 mph79%29.74 "Hg2 mi
8:40 AM82 °FBroken clouds.6 mph79%29.80 "Hg2 mi
7:40 AM81 °FBroken clouds.3 mph84%29.80 "Hg2 mi
7:10 AM79 °FScattered clouds.3 mph84%29.77 "Hg2 mi
6:10 AM77 °FPassing clouds.6 mph89%29.77 "Hg2 mi
5:40 AM77 °FPassing clouds.5 mph89%29.74 "Hg2 mi
5:10 AM77 °FPartly cloudy.No wind89%29.74 "Hg2 mi
4:40 AM77 °FPartly cloudy.No wind89%29.74 "Hg2 mi
2:10 AM77 °FPartly cloudy.3 mph89%29.74 "Hg2 mi
1:40 AM77 °FPartly cloudy.3 mph89%29.74 "Hg2 mi
1:10 AM79 °FPartly cloudy.3 mph89%29.77 "Hg2 mi
12:40 AM79 °FPartly cloudy.3 mph89%29.77 "Hg2 mi
12:10 AM79 °FPartly cloudy.3 mph89%29.77 "Hg2 mi
11:40 PM
Sep 17
79 °FPartly cloudy.3 mph89%29.80 "Hg2 mi
11:10 PM79 °FPassing clouds.3 mph89%29.80 "Hg2 mi
10:40 PM81 °FPassing clouds.3 mph84%29.80 "Hg2 mi
10:10 PM81 °FPassing clouds.3 mph84%29.80 "Hg2 mi
9:40 PM81 °FPassing clouds.3 mph84%29.80 "Hg2 mi
9:10 PM82 °FPassing clouds.5 mph79%29.80 "Hg2 mi
8:40 PM82 °FPassing clouds.5 mph79%29.80 "Hg2 mi
8:10 PM82 °FPassing clouds.7 mph79%29.80 "Hg2 mi
7:40 PM82 °FPassing clouds.6 mph79%29.77 "Hg2 mi
6:40 PM84 °FScattered clouds.6 mph74%29.74 "Hg3 mi
6:10 PM84 °FScattered clouds.8 mph74%29.74 "Hg3 mi
5:40 PM86 °FScattered clouds.7 mph70%29.71 "Hg3 mi
5:10 PM86 °FScattered clouds.8 mph75%29.71 "Hg3 mi
4:40 PM88 °FScattered clouds.9 mph70%29.71 "Hg3 mi
3:40 PM88 °FScattered clouds.9 mph70%29.68 "Hg4 mi
3:10 PM88 °FScattered clouds.10 mph70%29.68 "Hg4 mi
2:40 PM88 °FBroken clouds.9 mph70%29.68 "Hg4 mi
2:10 PM88 °FBroken clouds.9 mph70%29.68 "Hg4 mi
1:10 PM88 °FScattered clouds.9 mph70%29.71 "Hg4 mi
12:40 PM88 °FPassing clouds.9 mph70%29.74 "Hg4 mi
12:10 PM88 °FPassing clouds.10 mph70%29.74 "Hg4 mi
11:40 AM86 °FScattered clouds.9 mph75%29.77 "Hg4 mi
11:10 AM86 °FScattered clouds.8 mph75%29.77 "Hg3 mi
10:40 AM86 °FScattered clouds.8 mph75%29.77 "Hg3 mi
10:10 AM86 °FScattered clouds.8 mph75%29.77 "Hg3 mi
Weather by CustomWeather, © 2014

See weather overviewHow to use our weather pages